TimeHST,TemperatureF,Dew PointF,Humidity,Sea Level PressureIn,VisibilityMPH,Wind Direction,Wind SpeedMPH,Gust SpeedMPH,PrecipitationIn,Events,Conditions,WindDirDegrees,DateUTC
12:53 AM,75.0,66.9,76,30.02,10.0,ENE,11.5,-,N/A,,Partly Cloudy,60,2013-12-11 10:53:00
1:53 AM,73.9,66.9,79,30.01,10.0,ENE,5.8,-,N/A,,Partly Cloudy,60,2013-12-11 11:53:00
2:53 AM,73.9,66.9,79,29.99,10.0,Calm,Calm,-,N/A,,Partly Cloudy,0,2013-12-11 12:53:00
3:53 AM,75.0,66.9,76,29.99,10.0,NNE,3.5,-,N/A,,Partly Cloudy,30,2013-12-11 13:53:00
4:53 AM,73.9,66.9,79,29.99,10.0,NNE,6.9,-,N/A,,Scattered Clouds,30,2013-12-11 14:53:00
5:53 AM,73.9,64.9,73,30.00,10.0,ENE,6.9,-,N/A,,Partly Cloudy,60,2013-12-11 15:53:00
6:53 AM,73.9,64.9,73,30.01,10.0,NE,4.6,-,N/A,,Partly Cloudy,50,2013-12-11 16:53:00
7:53 AM,77.0,66.0,69,30.03,10.0,ENE,8.1,-,N/A,,Scattered Clouds,60,2013-12-11 17:53:00
8:53 AM,79.0,64.9,62,30.05,10.0,ENE,10.4,-,N/A,,Scattered Clouds,60,2013-12-11 18:53:00
9:53 AM,81.0,66.0,60,30.06,10.0,ENE,13.8,-,N/A,,Scattered Clouds,60,2013-12-11 19:53:00
10:53 AM,81.0,66.9,62,30.04,10.0,NE,11.5,-,N/A,,Scattered Clouds,50,2013-12-11 20:53:00
11:53 AM,81.0,66.9,62,30.01,10.0,ENE,15.0,-,N/A,,Mostly Cloudy,60,2013-12-11 21:53:00
12:53 PM,81.0,68.0,65,29.99,10.0,NE,12.7,-,N/A,,Mostly Cloudy,50,2013-12-11 22:53:00
1:53 PM,77.0,69.1,76,29.96,9.0,East,5.8,-,0.01,Rain,Light Rain,80,2013-12-11 23:53:00
2:53 PM,82.0,66.9,60,29.95,10.0,NE,9.2,-,N/A,,Mostly Cloudy,50,2013-12-12 00:53:00
3:53 PM,81.0,63.0,54,29.96,10.0,NE,12.7,-,N/A,,Mostly Cloudy,50,2013-12-12 01:53:00
4:53 PM,80.1,64.0,58,29.95,10.0,NE,11.5,-,N/A,,Mostly Cloudy,50,2013-12-12 02:53:00
5:53 PM,77.0,64.0,64,29.98,10.0,ENE,11.5,-,N/A,,Scattered Clouds,60,2013-12-12 03:53:00
6:53 PM,75.9,63.0,64,30.00,10.0,ENE,9.2,-,N/A,,Scattered Clouds,70,2013-12-12 04:53:00
7:53 PM,75.0,63.0,66,30.01,10.0,NE,5.8,-,N/A,,Scattered Clouds,40,2013-12-12 05:53:00
8:53 PM,73.9,64.0,71,30.03,10.0,ENE,5.8,-,N/A,,Scattered Clouds,70,2013-12-12 06:53:00
9:53 PM,75.9,64.9,69,30.04,10.0,ENE,5.8,-,N/A,,Mostly Cloudy,60,2013-12-12 07:53:00
10:53 PM,75.9,63.0,64,30.06,10.0,NE,5.8,-,N/A,,Mostly Cloudy,40,2013-12-12 08:53:00
11:53 PM,75.0,63.0,66,30.04,10.0,NE,8.1,-,N/A,,Scattered Clouds,50,2013-12-12 09:53:00